FW6082 Weather Reports


time (UTC)temp
C
wind
direction
speed
KPH
gust
KPH
rain 1hr
cm
rain 24hr
cm
rain mn
cm
humidity
%
barometer
mb
20260902191542 23 298 3.2 12.9 0.00 0.00 0.00 15 1013.9
20260902190042 23 236 3.2 12.9 0.00 0.00 0.00 13 1014.1
20260902184539 23 271 6.4 14.5 0.00 0.00 0.00 13 1014.2
20260902183038 23 292 6.4 14.5 0.00 0.00 0.00 15 1013.8
20260902181539 24 281 4.8 9.7 0.00 0.00 0.00 16 1014.0
20260902180034 25 244 4.8 11.3 0.00 0.00 0.00 15 1014.1
20260902174543 24 266 1.6 9.7 0.00 0.00 0.00 16 1014.2
20260902173026 23 283 4.8 14.5 0.00 0.00 0.00 16 1014.5
20260902171526 23 282 4.8 14.5 0.00 0.00 0.00 17 1014.7
20260902170032 23 240 3.2 11.3 0.00 0.00 0.00 14 1014.7
20260902164534 23 270 3.2 12.9 0.00 0.00 0.00 15 1014.7
20260902163018 23 280 3.2 9.7 0.00 0.00 0.00 17 1015.1
20260902161524 23 224 3.2 11.3 0.00 0.00 0.00 18 1015.0
20260902160013 22 329 0.0 4.8 0.00 0.00 0.00 20 1014.9
20260902154517 22 20 0.0 6.4 0.00 0.00 0.00 19 1015.3
20260902153014 22 180 0.0 4.8 0.00 0.00 0.00 20 1015.5
20260902151507 21 255 0.0 3.2 0.00 0.00 0.00 22 1015.3
20260902150009 22 211 0.0 4.8 0.00 0.00 0.00 23 1015.4
20260902144506 22 209 0.0 3.2 0.00 0.00 0.00 21 1015.4
20260902143059 22 105 0.0 1.6 0.00 0.00 0.00 20 1015.3
20260902141555 21 105 0.0 0.0 0.00 0.00 0.00 21 1015.2
20260902140057 20 105 0.0 0.0 0.00 0.00 0.00 24 1015.2
20260902134547 18 105 0.0 1.6 0.00 0.00 0.00 30 1015.2
20260902133054 17 105 0.0 0.0 0.00 0.00 0.00 24 1015.2
20260902131538 17 105 0.0 0.0 0.00 0.00 0.00 31 1015.2
20260902130035 16 359 0.0 0.0 0.00 0.00 0.00 30 1015.1
20260902124535 15 359 0.0 0.0 0.00 0.00 0.00 35 1015.0
20260902123029 15 359 0.0 0.0 0.00 0.00 0.00 31 1015.0
20260902121527 14 359 0.0 0.0 0.00 0.00 0.00 36 1014.9
20260902120022 13 359 0.0 0.0 0.00 0.00 0.00 35 1014.8
20260902114520 12 359 0.0 0.0 0.00 0.00 0.00 36 1014.9
20260902113016 13 359 0.0 0.0 0.00 0.00 0.00 35 1014.8
20260902111513 12 359 0.0 0.0 0.00 0.00 0.00 36 1014.8
20260902110017 12 359 0.0 0.0 0.00 0.00 0.00 38 1014.7
20260902104512 12 359 0.0 0.0 0.00 0.00 0.00 36 1014.6
20260902103013 12 359 0.0 0.0 0.00 0.00 0.00 37 1014.6
20260902101511 12 359 0.0 0.0 0.00 0.00 0.00 38 1014.6
20260902100010 12 359 0.0 0.0 0.00 0.00 0.00 40 1014.6
20260902094510 12 359 0.0 0.0 0.00 0.00 0.00 36 1014.2
20260902093008 12 359 0.0 0.0 0.00 0.00 0.00 36 1014.2
20260902091507 13 359 0.0 0.0 0.00 0.00 0.00 34 1014.0
20260902090008 13 359 0.0 0.0 0.00 0.00 0.00 30 1014.0
20260902084506 13 359 0.0 1.6 0.00 0.00 0.00 30 1013.9
20260902083004 13 359 0.0 1.6 0.00 0.00 0.00 37 1014.1
20260902081503 12 359 0.0 0.0 0.00 0.00 0.00 37 1014.3
20260902080101 12 359 0.0 0.0 0.00 0.00 0.00 39 1014.5
20260902074619 12 359 0.0 1.6 0.00 0.00 0.00 39 1014.7
20260902073058 13 359 0.0 0.0 0.00 0.00 0.00 35 1014.9
20260902071556 13 359 0.0 0.0 0.00 0.00 0.00 37 1014.9
20260902070054 13 359 0.0 0.0 0.00 0.00 0.00 34 1015.0
20260902064554 12 359 0.0 0.0 0.00 0.00 0.00 40 1015.0
20260902063048 12 359 0.0 0.0 0.00 0.00 0.00 35 1015.3
20260902061550 12 359 0.0 1.6 0.00 0.00 0.00 39 1015.4
20260902060045 11 359 0.0 0.0 0.00 0.00 0.00 41 1015.6
20260902054543 11 359 0.0 3.2 0.00 0.00 0.00 41 1015.7
20260902053043 11 359 0.0 0.0 0.00 0.00 0.00 41 1015.7
20260902051541 11 359 0.0 0.0 0.00 0.00 0.00 40 1015.8
20260902050040 12 359 0.0 0.0 0.00 0.00 0.00 41 1015.6
20260902044639 12 359 0.0 0.0 0.00 0.00 0.00 41 1015.6
20260902043043 11 359 0.0 0.0 0.00 0.00 0.00 44 1015.5
20260902041534 11 359 0.0 0.0 0.00 0.00 0.00 41 1015.5
20260902040031 12 359 0.0 0.0 0.00 0.00 0.00 42 1015.7
20260902034531 12 359 0.0 0.0 0.00 0.00 0.00 40 1015.9
20260902033029 12 359 0.0 1.6 0.00 0.00 0.00 38 1015.8
20260902031537 13 359 0.0 0.0 0.00 0.00 0.00 37 1016.0
20260902030031 12 359 0.0 0.0 0.00 0.00 0.00 37 1016.0
20260902024528 12 359 0.0 0.0 0.00 0.00 0.00 38 1016.2
20260902023033 12 359 0.0 0.0 0.00 0.00 0.00 38 1016.2
20260902021529 12 359 0.0 0.0 0.00 0.00 0.00 38 1016.2
20260902020029 13 359 0.0 0.0 0.00 0.00 0.00 41 1016.1
20260902014530 12 359 0.0 0.0 0.00 0.00 0.00 37 1016.0
20260902013025 13 359 0.0 0.0 0.00 0.00 0.00 37 1016.0
20260902011524 13 359 0.0 0.0 0.00 0.00 0.00 40 1015.8
20260902010026 13 359 0.0 0.0 0.00 0.00 0.00 37 1015.7
20260902004528 14 359 0.0 0.0 0.00 0.00 0.00 37 1015.6
20260902003027 15 359 0.0 0.0 0.00 0.00 0.00 33 1015.6
20260902001523 16 359 0.0 0.0 0.00 0.00 0.00 31 1015.3
20260902000022 16 359 0.0 0.0 0.00 0.00 0.00 31 1015.0
20260901234522 17 359 0.0 3.2 0.00 0.00 0.00 27 1014.6
20260901233023 18 359 0.0 0.0 0.00 0.00 0.00 31 1014.4
20260901231521 19 359 0.0 0.0 0.00 0.00 0.00 25 1014.2
20260901230020 20 359 0.0 3.2 0.00 0.00 0.00 21 1014.1
20260901224525 21 341 0.0 1.6 0.00 0.00 0.00 20 1014.1
20260901223019 22 341 0.0 1.6 0.00 0.00 0.00 20 1014.0
20260901221552 22 347 0.0 6.4 0.00 0.00 0.00 18 1013.8
20260901220022 23 315 0.0 6.4 0.00 0.00 0.00 17 1013.7
20260901214517 23 246 3.2 11.3 0.00 0.00 0.00 15 1013.6
20260901213021 23 295 3.2 12.9 0.00 0.00 0.00 16 1013.6
20260901211516 24 283 8.0 16.1 0.00 0.00 0.00 15 1013.6
20260901210014 24 280 8.0 16.1 0.00 0.00 0.00 15 1013.4
20260901204519 25 290 4.8 14.5 0.00 0.00 0.00 15 1013.2
20260901203013 26 271 6.4 12.9 0.00 0.00 0.00 13 1013.0
20260901201512 27 209 3.2 9.7 0.00 0.00 0.00 13 1013.1
20260901200024 27 236 3.2 8.0 0.00 0.00 0.00 11 1013.1
20260901194511 27 252 3.2 12.9 0.00 0.00 0.00 11 1013.1
20260901193012 27 238 3.2 9.7 0.00 0.00 0.00 11 1013.2